Location: Newark
(3.1475°N, 101.6933°E)
Time: 17:23:48
(UTC+00:00)

Hubble Space Telescope - Pass Details

Date: 21 October 2019
Orbit: 536 x 540 km, 28.5° (Epoch: 13 November)

Event Time Altitude Azimuth Distance (km) Brightness Sun altitude
Rises 11:33:41 0° 269° (W) 2,674 6.4 -9.4°
Reaches altitude 10° 11:36:44 10° 246° (WSW) 1,785 4.9 -10.1°
Maximum altitude 11:39:11 15° 209° (SSW) 1,481 3.6 -10.7°
Drops below altitude 10° 11:41:38 10° 173° (S) 1,786 3.5 -11.3°
Sets 11:44:42 0° 149° (SSE) 2,678 4.1 -12.1°
